Regional Weather Roundup
Issued by NWS Grand Forks, ND

Home | Current Version | Previous Version | Text Only | Print | Product List | Glossary On
Versions: 1 2 3 4 5 6 7 8 9 10 11 12 13 14 15 16 17 18 19 20 21 22 23 24 25 26 27 28 29 30 31 32 33 34 35 36 37 38 39 40 41 42 43 44 45 46 47 48 49 50
000
ASUS43 KFGF 202331
RWRFGF
PRAIRIE TO PINES  WEATHER ROUNDUP
NATIONAL WEATHER SERVICE EASTERN NORTH DAKOTA/GRAND FORKS ND
600 PM CDT THU JUL 20 2017

 **SATELLITE DATA USED TO AUGMENT SKY COVER AT AUTOMATED STATIONS**
 *****  WEATHER ACROSS EASTERN NORTH DAKOTA  *****

CITY           SKY/WX    TMP DP  RH WIND       PRES   REMARKS
GRAND FORKS    FAIR      85  64  49 VRB3      29.93F
GRAND FRKS AFB FAIR      83  62  48 SE7       29.94F
DEVILS LAKE    FAIR      80  66  62 E7        29.95R
FARGO          FAIR      87  65  47 S8        29.92F
WAHPETON ARPT  FAIR      82  63  51 S9        29.94F
$$

 ***** WEATHER ACROSS CENTRAL AND WESTERN NORTH DAKOTA  *****

CITY           SKY/WX    TMP DP  RH WIND       PRES   REMARKS
BISMARCK       FAIR      91  54  28 SE21G26   29.82F
MINOT          FAIR      85  61  44 NE9       29.86F
JAMESTOWN      FAIR      88  66  48 S16       29.91F HX  90
MINOT AFB      FAIR      82  68  61 E14       29.86F
GARRISON         N/A     85  59  41 NE8       29.88R
WILLISTON      PTSUNNY   91  50  24 NE24G35   29.84S
DICKINSON      TSTM      74  63  68 SE21G39   29.78R
HETTINGER      FAIR      97  55  24 S25G36    29.79F HX  95
$$

 *****  OTHER AIRPORT OBSERVATIONS IN OUR AREA  *****

CITY           SKY/WX    TMP DP  RH WIND       PRES   REMARKS
WALHALLA       NOT AVBL
GRAFTON AIRPOR FAIR      77  61  57 NE5       29.96F
VALLEY CITY AR FAIR      86  66  51 S10       29.94F
CANDO          NOT AVBL
CAVALIER APRT  FAIR      77  63  61 SE3       29.96R
GWINNER        CLEAR     84  66  54 CALM      29.92F
SHEYENNE NWR     N/A     89  66  46 S8        29.95S HX  91
ROLLA            N/A     73  66  78 SE13      29.93F
 ***** THE ABOVE OBSERVATIONS ARE NON NWS ARE NOT QUALITY
       CONTROLLED AND MAY MIS-REPORT RAIN FOR SNOW...
$$

  *****  WEATHER ACROSS NORTHERN MINNESOTA  *****

CITY           SKY/WX    TMP DP  RH WIND       PRES   REMARKS
FLAG ISLAND    FAIR      72  55  56 S6        29.96S
WARROAD        FAIR      77  61  57 CALM      29.97S
ROSEAU         FAIR      77  63  61 SW5       29.96F
HALLOCK        FAIR      79  57  47 CALM      29.95R
THF RVR FALLS  NOT AVBL
BAUDETTE       FAIR      76  53  44 N5        29.98S
WASKISH        PTSUNNY   79  63  57 W7        29.97S
CROOKSTON      FAIR      82  61  47 CALM      29.95F
STEPHEN NDAWN    N/A     81  63  54 SW3         N/A
GREENBUSH NDAW   N/A     79  59  50 E2          N/A
$$
  *****  WEATHER ACROSS CENTRAL AND WEST MINNESOTA  *****

CITY           SKY/WX    TMP DP  RH WIND       PRES   REMARKS
FOSSTON        FAIR      84  61  45 W3        29.97S
BEMIDJI        FAIR      83  57  41 W6        29.97F
PARK RAPIDS    FAIR      89  52  28 SW5       29.97F
ELBOW LAKE     FAIR      82  71  67 S8        29.97F
WADENA         FAIR      82  63  51 SW8       29.98F
DETROIT LAKES  FAIR      82  64  54 S8        29.98S
MOORHEAD       FAIR      84  63  48 S7        29.93F
FERGUS FALLS   FAIR      84  66  54 S9        29.94F
MORRIS MN      FAIR      86  66  51 S10       29.95F
STAPLES        FAIR      84  63  48 S8        29.98F
$$
  *****  WEATHER ELSEWHERE ACROSS MINNESOTA  *****

CITY           SKY/WX    TMP DP  RH WIND       PRES   REMARKS
DULUTH         FAIR      83  58  42 NW5       29.97F
INTRNTL FALLS  FAIR      76  54  46 W6        29.97S
ELY            FAIR      75  52  43 W9        29.97S
CLOQUET        FAIR      82  55  39 SW9       29.97F
WHEATON        FAIR      82  66  57 S9        29.96F
BRAINERD       FAIR      84  60  44 SW9       29.98F
HIBBING        FAIR      80  57  45 W5        29.97F
ALEXANDRIA     FAIR      83  67  58 SW9       30.01F
SAINT CLOUD    FAIR      85  68  56 SW9       29.99F
MINNEAPOLIS    FAIR      88  59  37 VRB5      29.99F
$$

  *****  WEATHER ACROSS SOUTH DAKOTA  *****

CITY           SKY/WX    TMP DP  RH WIND       PRES   REMARKS
SIOUX FALLS    FAIR      87  70  56 SE13      29.96F HX  92
BROOKINGS      FAIR      86  63  45 SE13      29.98F
WATERTOWN      FAIR      86  59  39 SE10      29.97F
HURON          FAIR      89  70  53 SE14      29.92F HX  94
SISSETON         N/A     87  69  54 SE12      29.94F HX  91
ABERDEEN       FAIR      88  65  46 SE12      29.93F HX  90
MITCHELL       FAIR      88  74  63 SE12      29.93F HX  96
PIERRE         NOT AVBL
MOBRIDGE       FAIR      93  56  28 SE20      29.84F HX  91
RAPID CITY     FAIR      98  58  26 S21G29    29.90F HX  97
$$

  *****  SOME WEATHER IN NEARBY STATES *****

CITY           SKY/WX    TMP DP  RH WIND       PRES   REMARKS
GLASGOW MT     FAIR      92  44  19 E30G36    29.77
GREAT FALLS MT FAIR      94  26   9 W23G32    29.83F
CHEYENNE WY    FAIR      80  49  33 S9        30.15F
SCOTTSBLUFF NE FAIR      92  57  30 E14       30.01F HX  90
OMAHA NE       PTSUNNY   94  74  52 S9        29.92R HX 104
DES MOINES IA  PTSUNNY   99  73  43 NW7       29.91S HX 109
DAVENPORT IA   FAIR      90  78  68 N7        29.95F HX 104
CHICAGO IL     CLOUDY    82  71  69 E8        29.95F
EAU CLAIRE WI  FAIR      83  66  56 NW7       29.99S
LA CROSSE WI   FAIR      85  72  65 NW9       29.97F HX  91
$$

  *****  SOME NATIONAL WEATHER *****

CITY           SKY/WX    TMP DP  RH WIND       PRES   REMARKS
LA GUARDIA NY  PTSUNNY   93  65  39 W17       29.85S HX  95
RALEIGH NC     PTSUNNY   93  68  43 S5        29.96F HX  97
ATLANTA GA     FAIR      90  68  48 NW9       30.03S HX  94
NEW ORLEANS LA FAIR      95  71  45 NE6       30.00F HX 102
OKLAHOMA CITY  FAIR      99  61  28 SW14      29.98F HX  99
ALBUQUERQUE NM PTSUNNY   89  47  23 SW16      30.15F
SALT LAKE CITY PTSUNNY   95  54  25 SE13      29.98F HX  93
LOS ANGELES CA FAIR      77  66  68 W15       29.94F
BOISE ID       FAIR      91  40  16 N13       29.98F
SEATTLE WA     PTSUNNY   72  50  45 SW12      30.14F
$$

*** WEATHER ACROSS MANITOBA...SASKATCHEWAN AND ONTARIO ***
                ***ONTARIO***

CITY           SKY/WX    TMP DP  RH WIND       PRES   REMARKS
GERALDTON      MOSUNNY   75  46  35 W10G17    29.86S
THUNDER BAY    MOSUNNY   79  52  38 W8G17     29.89S
SIOUX LOOKOUT  MOSUNNY   75  46  35 W9        29.92F
TORONTO        MOSUNNY   77  64  65 SW6       29.89F
BIG TROUT LK   PTSUNNY   66  41  39 NW14G22   29.81R
PICKLE LAKE    PTSUNNY   68  52  56 W6        29.86F
DRYDEN         SUNNY     75  45  33 W9        29.94F
KENORA         PTSUNNY   72  52  49 S7        29.97S
$$
                *** MANITOBA***

CITY           SKY/WX    TMP DP  RH WIND       PRES   REMARKS
BRANDON        PTSUNNY   77  61  57 SE6       29.93F
DAUPHIN        SUNNY     77  64  65 SE7       29.90F
ISLAND LAKE    MOSUNNY   70  41  35 NW9G17    29.88R
PILOT MOUND      N/A     73  63  68 SE6         N/A
THE PAS        MOSUNNY   75  46  35 NE3       29.92S
THOMPSON       MOSUNNY   64  37  36 N14       29.92F
WINNIPEG       PTSUNNY   75  59  57 SW6       29.95S
LYNN LAKE      SUNNY     64  37  36 NW12      29.96S
CHURCHILL      MOSUNNY   54  39  58 N10       29.83S
GILLAM         PTSUNNY   61  37  41 NW22      29.87S
$$
                ***SASKATCHEWAN***

CITY           SKY/WX    TMP DP  RH WIND       PRES   REMARKS
ESTEVAN        LGT RAIN  70  66  88 E6        29.89F
KINDERSLEY     CLOUDY    73  50  43 N17G31    29.83S
LLOYDMINSTER   PTSUNNY   72  59  64 E17G24    29.84F
PRINCE ALBERT  CLOUDY    73  63  68 SE3       29.91S
REGINA         MOSUNNY   88  55  33 SE18      29.86F
YORKTON        SUNNY     81  54  39 S6        29.90F
N. BATTLEFORD  LGT RAIN  73  57  56 E9        29.91R
LA RONGE       PTSUNNY   72  46  40 NE7       29.94F
SASKATOON      PTSUNNY   82  54  36 E18       29.86F
SWIFT CURRENT  MOSUNNY   88  46  23 SE13      29.83F
$$
NOTE: THESE ARE AUTOMATED STATIONS WITH LIMITED QUALITY CONTROL
      "FAIR" INDICATES FEW OR NO CLOUDS BELOW 12,000 FEET WITH NO
      SIGNIFICANT WEATHER AND/OR OBSTRUCTIONS TO VISIBILITY.
      SKY/WX - SKY CONDITION AND SIGNIFICANT WEATHER.
      TMP - AIR TEMPERATURE.    DP   - DEWPOINT TEMPERATURE.
      RH  - RELATIVE HUMIDITY.  PRES - PRESSURE.
      HX  - HEAT INDEX.         WCI  - WIND CHILL INDEX.
$




USA.gov is the U.S. government's official web portal to all federal, state and local government web resources and services.